Torna al catalogo

STARLINK-35512

AttivoComunicazioniVLEO
NORAD 66330·PAYLOAD·🇺🇸 United States

Lanciato Nov 6, 2025 da Cape Canaveral Space Force Station

Loading…

Prossimi Passaggi (prossime 24 ore)

TLE

AggiornatoSource: CelesTrak SupGP

Epoca: Sep 15, 2026, 03:39 UTC

1 66330C 25253M   26258.15256944 -.00056145  00000+0 -20339-2 0  2583
2 66330  42.9995 222.7161 0001317 271.7612 250.9005 15.27601576    19

Traccia STARLINK-35512 in tempo reale con AllMySat

Download on the App Store